Flag for Venezuela Weather past 2 weeks in Valencia, Venezuela

Now
75 °F

Passing clouds.


Feels Like: 73 °F
Forecast: 67 / 88 °F
Wind: No wind

Location: Maracay-B. A. Sucre

Current Time: Oct 2, 2014 at 3:56:48 AM

Latest Report: Oct 2, 2014 at 1:30 AM


Visibility: N/A

Pressure: 30.01 "Hg

Humidity: 100%

Dew point: 75 °F

Location of ValenciaLocation

Historic Weather in Valencia — Graph

°F

Valencia temperature yesterday

Maximum temperature yesterday: 91 °F (at 2:30 PM)
Minimum temperature yesterday: 72 °F (at 6:30 AM)
Average temperature yesterday: 82 °F

Past Weeks' High & Low Weather Summary

 TemperatureHumidityPressure
High91 °F (Oct 1, 2:30 PM)100% (Sep 17, 1:30 AM)30.09 "Hg (Sep 17, 1:30 AM)
Low68 °F (Sep 24, 1:30 AM)52% (Sep 17, 1:30 PM)29.86 "Hg (Sep 26, 9:30 AM)
Average81 °F82%29.98 "Hg
* Reported Sep 17 1:30 AM — Oct 2 1:30 AM, Valencia, Weather by CustomWeather, © 2014

Note: Actual official high and low records may vary slightly from our data, if they occured in-between our weather recording intervals... More about our weather records

Advertising

Valencia weather history for previous 24 hours

 ConditionsComfort  
Time TempWeatherWind HumidityBarometerVisibility
1:30 AM
Oct 2
75 °FPassing clouds.No wind100%30.01 "HgN/A
10:30 PM
Oct 1
75 °FPassing clouds.3 mph100%30.04 "Hg6 mi
9:30 PM79 °FPassing clouds.2 mph84%30.01 "HgN/A
8:30 PM82 °FPassing clouds.No wind70%29.98 "HgN/A
7:30 PM82 °FPassing clouds.No wind70%29.98 "HgN/A
6:30 PM84 °FPassing clouds.No wind66%29.95 "HgN/A
5:30 PM86 °FPassing clouds.8 mph66%29.92 "HgN/A
4:30 PM88 °FScattered clouds.8 mph62%29.92 "HgN/A
3:30 PM90 °FScattered clouds.9 mph55%29.92 "HgN/A
2:30 PM91 °FScattered clouds.10 mph56%29.92 "HgN/A
1:30 PM90 °FScattered clouds.8 mph59%29.95 "HgN/A
12:30 PM88 °FPartly sunny.7 mph59%29.98 "HgN/A
11:30 AM88 °FScattered clouds.8 mph66%30.01 "HgN/A
10:30 AM88 °FScattered clouds.8 mph66%30.04 "HgN/A
8:30 AM81 °FSunny.3 mph79%30.04 "Hg10 mi
7:30 AM77 °FPassing clouds.3 mph94%30.04 "HgN/A
6:30 AM72 °FPassing clouds.No wind100%30.01 "HgN/A
5:30 AM73 °FSunny.No wind100%30.01 "Hg10 mi
4:30 AM73 °FClear.No wind100%30.01 "Hg10 mi
Weather by CustomWeather, © 2014

See weather overviewHow to use our weather pages